Regional Weather Roundup
Issued by NWS Goodland, KS

Home | Current Version | Previous Version | Graphics & Text | Print | Product List | Glossary On
Versions: 1 2 3 4 5 6 7 8 9 10 11 12 13 14 15 16 17 18 19 20 21 22 23 24 25 26 27 28 29 30 31 32 33 34 35 36 37 38 39 40 41 42 43 44 45 46 47 48 49 50
000
ASUS43 KGLD 310008
RWRGLD

GOODLAND FORECAST AREA HOURLY WEATHER ROUNDUP
NATIONAL WEATHER SERVICE GOODLAND KS
600 PM MDT SAT AUG 30 2014

...OFFICIAL OBSERVATIONS...

CITY           SKY/WX    TMP DP  RH WIND       PRES   REMARKS
GOODLAND KS    SUNNY     88  46  23 S9        29.86F
HILL CITY KS   SUNNY     89  55  31 S10       29.84F
IMPERIAL NEB   SUNNY     87  50  27 S14       29.82F
MCCOOK NEB     SUNNY     88  55  32 S9        29.82S
AKRON CO       SUNNY     85  42  22 S15G28    29.89S
BURLINGTON CO  SUNNY     87  43  21 S12       29.89F
LIMON CO       SUNNY     80  40  23 SW9       29.96S
$$

...UNOFFICIAL OBSERVATIONS...

CITY           SKY/WX    TMP DP  RH WIND       PRES   REMARKS
COLBY KS       SUNNY     88  57  35 SE15G21   29.86F
GOVE KS          N/A     89  32  13 CALM        N/A
NORTON KS      SUNNY     88  48  25 SE10      29.83
SHARON SPRINGS   N/A     90  50  25 S10         N/A
WAKEENEY KS      N/A     90  46  21 MISG        N/A
KIT CARSON CO    N/A     90  46  21 CALM        N/A
YUMA CO          N/A     85  49  28 CALM        N/A
$$


USA.gov is the U.S. government's official web portal to all federal, state and local government web resources and services.